This demonstration page uses our WeatherBlox Daily Observations layout. Learn more.

Left ArrowRight Arrow

39.12711, -84.51439

Hourly Observations for August 4, 2018

Temp ( °F °C ) Dew Point ( °F °C ) Humidity (%) Winds ( mph kmh ) Pressure ( in mb ) Visibility ( mi km ) Precip ( " mm )
12:53 am 00:53 Clear with Mist and Fog 71 21.7 70 21.1 96 96 N N/A 30.09 1019 6 10 N/A
1:53 am 01:53 Clear with Mist and Fog 70 21.1 70 21.1 100 100 N N/A 30.10 1019 5 8 N/A
2:46 am 02:46 Clear with Mist and Fog 69 20.6 69 20.6 100 100 N N/A 30.06 1018 2 3 N/A
2:53 am 02:53 Clear with Mist and Fog 69 20.6 69 20.6 100 100 SSW 3 6 30.09 1019 3 4 N/A
3:10 am 03:10 Clear with Mist and Fog 70 21.1 70 21.1 100 100 SSW 3 6 30.06 1018 1 1 N/A
3:21 am 03:21 Mostly Cloudy with Fog 69 20.6 69 20.6 100 100 N N/A 30.06 1018 0 0 N/A
3:32 am 03:32 Clear with Mist and Fog 69 20.6 69 20.6 100 100 N N/A 30.09 1019 1 2 N/A
3:36 am 03:36 Clear with Mist and Fog 69 20.6 69 20.6 100 100 N N/A 30.09 1019 3 5 N/A
3:53 am 03:53 Clear with Mist and Fog 69 20.6 69 20.6 100 100 N N/A 30.09 1019 4 6 N/A
4:53 am 04:53 Clear with Mist and Fog 69 20.6 69 20.6 100 100 SW 5 7 30.09 1019 3 5 N/A
5:05 am 05:05 Clear with Mist and Fog 68 20 68 20 100 100 W 3 6 30.09 1019 2 3 N/A
5:14 am 05:14 Clear with Mist and Fog 68 20 68 20 100 100 N N/A 30.06 1018 3 5 N/A
5:44 am 05:44 Mostly Clear with Mist and Fog 68 20 68 20 100 100 N N/A 30.09 1019 2 3 N/A
5:53 am 05:53 Mostly Clear with Mist and Fog 68 20 68 20 100 100 N N/A 30.10 1019 2 3 N/A
6:00 am 06:00 Mostly Clear with Mist and Fog 68 20 68 20 100 100 N N/A 30.09 1019 3 4 N/A
6:09 am 06:09 Mostly Cloudy with Mist and Fog 69 20.6 69 20.6 100 100 N N/A 30.09 1019 4 6 N/A
6:18 am 06:18 Partly Cloudy with Mist and Fog 69 20.6 69 20.6 100 100 N N/A 30.09 1019 2 3 N/A
6:29 am 06:29 Mostly Clear with Mist and Fog 68 20 68 20 100 100 N N/A 30.09 1019 3 5 N/A
6:53 am 06:53 Partly Cloudy with Mist and Fog 68 20 68 20 100 100 N N/A 30.12 1020 5 8 N/A
7:53 am 07:53 Sunny with Mist and Fog 70 21.1 70 21.1 100 100 N N/A 30.14 1021 5 8 N/A
8:53 am 08:53 Mostly Sunny 74 23.3 71 21.7 91 91 SSW 5 7 30.15 1021 8 13 N/A
9:53 am 09:53 Partly Cloudy 79 26.1 71 21.7 77 77 S 3 6 30.16 1021 10 16 N/A
10:53 am 10:53 Sunny 83 28.3 72 22.2 70 70 VRB 3 6 30.15 1021 10 16 N/A
11:53 am 11:53 Mostly Sunny 85 29.4 73 22.8 68 68 SSW 6 9 30.15 1021 10 16 N/A
12:53 pm 12:53 Partly Cloudy 87 30.6 74 23.3 65 65 SSW 5 7 30.15 1021 10 16 N/A
1:53 pm 13:53 Mostly Cloudy 89 31.7 72 22.2 57 57 VRB 5 7 30.13 1020 10 16 N/A
2:22 pm 14:22 Mostly Cloudy with Nearby Thunderstorms 89 31.7 72 22.2 57 57 S 6 9 30.09 1019 10 16 N/A
2:53 pm 14:53 Mostly Cloudy 89 31.7 71 21.7 55 55 VRB 7 11 30.12 1020 10 16 N/A
3:53 pm 15:53 Mostly Cloudy 85 29.4 75 23.9 72 72 S 8 13 30.10 1019 10 16 N/A
4:53 pm 16:53 Mostly Cloudy with Strong Thunderstorms 77 25 73 22.8 88 88 W 32 52 30.14 1021 2 3 0.31 7.87
5:01 pm 17:01 Cloudy with Strong Thunderstorms 73 22.8 70 21.1 90 90 WSW 28 44 30.15 1021 1 1 0.47 11.94
5:37 pm 17:37 Cloudy with Strong Thunderstorms 71 21.7 71 21.7 100 100 WSW 28 44 30.12 1020 1 1 2.31 58.67
5:53 pm 17:53 Cloudy with Strong Thunderstorms 73 22.8 72 22.2 96 96 NW 20 31 30.13 1020 1 1 2.72 69.09
6:08 pm 18:08 Cloudy with Thunderstorms 70 21 N/A N/A VRB 6 9 30.09 1019 2 2 0.11 2.79
6:14 pm 18:14 Cloudy with Thunderstorms 70 21.1 70 21.1 100 100 VRB 6 9 30.12 1020 4 6 0.12 3.05
6:33 pm 18:33 Cloudy with Light Rain 71 21.7 71 21.7 100 100 VRB 3 6 30.09 1019 7 11 0.12 3.05
6:43 pm 18:43 Mostly Cloudy with Nearby Thunderstorms 73 22.8 73 22.8 100 100 N N/A 30.09 1019 10 16 0.12 3.05
6:53 pm 18:53 Partly Cloudy with Light Rain 73 22.8 73 22.8 100 100 ENE 6 9 30.11 1020 10 16 0.12 3.05
7:00 pm 19:00 Partly Cloudy with Light Rain 75 23.9 75 23.9 100 100 N N/A 30.09 1019 10 16 N/A
7:53 pm 19:53 Mostly Sunny 76 24.4 76 24.4 100 100 N N/A 30.11 1020 10 16 N/A
8:53 pm 20:53 Mostly Clear 72 22.2 72 22.2 100 100 SSW 3 6 30.12 1020 7 11 N/A
9:53 pm 21:53 Mostly Clear with Mist and Fog 69 20.6 69 20.6 100 100 S 5 7 30.14 1021 5 8 N/A
10:53 pm 22:53 Mostly Cloudy with Fog 71 21.7 71 21.7 100 100 N N/A 30.15 1021 0 0 N/A
11:01 pm 23:01 Clear with Fog 70 21.1 70 21.1 100 100 N N/A 30.15 1021 1 1 N/A
11:12 pm 23:12 Clear with Mist and Fog 70 21.1 70 21.1 100 100 N N/A 30.15 1021 2 3 N/A
11:31 pm 23:31 Clear with Mist and Fog 70 21.1 70 21.1 100 100 N N/A 30.15 1021 1 2 N/A
11:36 pm 23:36 Clear with Fog 69 20.6 69 20.6 100 100 N N/A 30.15 1021 0 0 N/A
11:53 pm 23:53 Clear with Fog 70 21.1 70 21.1 100 100 N N/A 30.16 1021 0 0 N/A

Powered by AerisWeather